Volver al catálogo

STARLINK-6164

ActivoComunicacionesVLEO
NORAD 57152·PAYLOAD·🇺🇸 United States

Lanzado Jun 23, 2023 desde Cape Canaveral Space Force Station

Loading…

Próximos Pases (próximas 24 horas)

TLE

ActualizadoSource: CelesTrak SupGP

Época: Sep 14, 2026, 22:22 UTC

1 57152C 23090BD  26257.93243056  .00024620  00000+0  89177-3 0  2573
2 57152  43.0019 274.5028 0001923 276.8701 191.3996 15.27563511    18

Sigue STARLINK-6164 en tiempo real con AllMySat

Download on the App Store